Location: Le Vaublanc
(48.2126°N, 2.6253°W)
Time: 04:50:57
(UTC+00:00)

Daily predictions for brighter satellites

Satellite Brightness Start Highest point End
(mag) Time Altitude Azimuth Time Altitude Azimuth Time Altitude Azimuth
Cosmos 2333 Rocket 4.5 02:21:07 20° ENE 02:21:07 20° ENE 02:23:24 10° NE
SL-16 R/B 4.5 02:35:37 18° NNE 02:35:37 18° NNE 02:37:04 10° NNE
Cosmos 2219 Rocket 4.1 02:37:21 25° ENE 02:37:21 25° ENE 02:40:04 10° NE
USA 234 4.0 02:35:56 10° E 02:40:51 47° ENE 02:40:51 47° ENE
COSMOS 2455 4.2 02:49:04 35° NE 02:49:04 35° NE 02:52:25 10° NE
ATLAS 3B R/B 3.5 02:47:49 44° NE 02:47:49 44° NE 02:54:15 10° ESE
Cosmos 2237 Rocket 4.4 02:47:34 17° ESE 02:48:32 18° E 02:52:16 10° ENE
CENTAUR R/B 3.5 02:54:44 44° NNW 02:57:08 58° NE 03:05:36 10° ESE
Cosmos 2322 Rocket 4.2 03:03:58 19° N 03:03:58 19° N 03:05:50 10° NNE
Cosmos 2360 Rocket 3.8 03:11:45 27° N 03:11:45 27° N 03:14:24 10° NNE
COSMOS 2428 3.7 03:11:04 43° NE 03:11:04 43° NE 03:15:01 10° NNE
ADEOS II 3.9 03:07:05 10° NNE 03:09:02 23° N 03:09:02 23° N
ATLAS 2AS CENTAUR R/B 3.5 03:16:30 50° SSE 03:18:01 56° ESE 03:25:50 10° NE
Cosmos 1709 Rocket 4.1 03:34:59 70° N 03:34:59 70° N 03:40:36 10° N
IDEFIX/ARIANE 42P 3.4 03:34:54 10° NNE 03:40:00 48° E 03:41:20 39° SE
NOSS 3-2 (A) 4.2 03:45:57 52° SSW 03:45:57 52° SSW 03:52:42 10° SSE
USA 267 3.2 03:43:35 10° NE 03:50:11 80° SE 03:51:17 63° SSW
Cosmos 2278 Rocket 2.7 03:52:09 48° SSE 03:52:09 48° SSE 03:56:08 10° SSE
Cosmos 407 Rocket 3.9 03:59:53 45° SSE 04:01:12 60° ESE 04:06:15 10° NNE
Cosmos 2333 Rocket 2.4 04:03:09 55° NW 04:03:09 55° NW 04:08:18 10° NNE
NOSS 3-2 (C) 4.0 04:07:39 44° WNW 04:09:55 59° WSW 04:18:06 10° SSE
Cosmos 2074 Rocket 4.0 04:06:21 10° S 04:12:33 78° E 04:18:47 10° NNE
SL-16 R/B 4.3 04:17:29 13° NNW 04:17:29 13° NNW 04:19:50 10° N
Cosmos 2219 Rocket 2.5 04:19:05 44° NW 04:19:05 44° NW 04:24:17 10° NNE
CBERS 1 LM4 rocket 4.4 04:14:30 10° N 04:19:19 59° WNW 04:19:19 59° WNW
Spot 2 4.4 04:16:32 10° N 04:19:35 49° N 04:19:35 49° N
Cosmos 489 Rocket 4.4 04:17:20 10° NNW 04:23:28 60° WSW 04:29:36 10° S
USA 234 3.2 04:18:41 10° SE 04:25:12 69° SW 04:28:13 34° WNW
Cosmos 2181 Rocket 4.3 04:19:34 10° NNW 04:25:00 43° WNW 04:25:00 43° WNW
ARIANE 5 R/B 4.4 04:22:21 10° NNW 04:23:50 16° NNW 04:23:50 16° NNW
Meteor 1-21 4.2 04:26:52 46° SW 04:28:20 61° WNW 04:33:57 10° N
NOSS 3-4 (A) 3.4 04:25:47 37° SW 04:28:23 89° SE 04:34:51 10° NE
NOSS 3-4 (C) 3.4 04:25:49 36° SW 04:28:28 88° SE 04:34:57 10° NE
NOSS 2-2 (D) 4.4 04:29:54 33° NNW 04:29:54 33° NNW 04:33:30 10° NNE
USA 32 3.9 04:29:17 31° SSW 04:31:47 67° W 04:37:02 10° N
Cosmos 2237 Rocket 2.1 04:29:27 36° SW 04:31:54 80° WNW 04:37:39 10° NNE
ADEOS 3.5 04:27:34 10° N 04:32:46 66° WNW 04:34:54 35° SW
COSMOS 2455 3.8 04:32:13 28° NW 04:32:55 29° NW 04:38:07 10° NNE
Aureole 1 Rocket 4.3 04:35:20 33° NW 04:35:20 33° NW 04:38:59 10° N
BREEZE-M DEB (TANK) 2.2 04:35:29 60° W 04:36:06 81° NNW 04:38:41 10° ENE
H-2A R/B 2.4 04:32:14 10° NNE 04:36:26 87° WNW 04:38:53 25° SSW
Cosmos 614 Rocket 3.9 04:34:48 37° SW 04:36:52 72° WNW 04:42:06 10° NNE
ATLAS 3B R/B 2.7 04:35:09 28° WNW 04:38:40 55° WSW 04:45:19 10° SSE
Cosmos 1140 Rocket 3.4 04:35:02 18° SSW 04:38:54 84° ESE 04:44:05 10° NNE
Cosmos 1954 Rocket 4.4 04:34:03 10° S 04:39:13 64° ESE 04:44:23 10° NNE
Cosmos 1606 Rocket 3.4 04:35:02 10° N 04:39:23 90° SE 04:43:42 10° S
COSMOS 2441 4.3 04:37:36 10° NNE 04:42:33 82° WNW 04:47:26 10° SSW
Meteor 1-4 Rocket 2.4 04:41:56 35° S 04:43:17 82° E 04:46:46 10° NNE
Cosmos 2369 Rocket 3.9 04:39:22 10° NNW 04:44:22 32° NE 04:49:19 10° ESE
PAYLOAD A 3.8 04:41:34 10° NNE 04:46:27 86° WNW 04:51:29 10° SSW
Cosmos 2322 Rocket 4.3 04:45:47 10° NW 04:46:37 10° NNW 04:47:27 10° NNW
Cosmos 1726 2.9 04:43:23 10° N 04:46:59 52° ENE 04:50:34 10° SSE
GP-B 3.9 04:43:18 10° SSE 04:47:37 53° E 04:51:58 10° N
Cosmos 1953 2.2 04:43:39 10° NNW 04:47:38 60° W 04:51:34 10° S
CENTAUR R/B 3.3 04:42:00 18° NW 04:48:01 50° WSW 04:56:15 10° S
Gblst 52 Del rocket 4.1 04:46:13 33° WNW 04:48:49 86° SSW 04:54:41 10° ESE
Cosmos 1980 3.8 04:47:10 31° WSW 04:49:44 57° WNW 04:55:20 10° NNE
Cosmos 389 Rocket 2.6 04:50:46 49° NW 04:50:46 49° NW 04:53:47 10° N
ADEOS II 4.0 04:48:31 10° NNW 04:49:58 13° NW 04:49:58 13° NW
COSMOS 2428 3.6 04:53:07 27° WNW 04:54:06 28° NW 04:58:58 10° NNE
Cosmos 2360 Rocket 4.0 04:53:32 14° NW 04:54:14 14° NNW 04:57:13 10° N
CZ-4B R/B 3.0 04:50:40 10° NNE 04:54:41 73° ESE 04:58:28 10° S
BREEZE-M R/B 4.3 04:52:15 31° W 04:55:04 79° N 05:06:15 10° E
Cosmos 1707 2.9 04:56:41 36° SW 04:57:50 48° WNW 05:01:40 10° N
Meteor 1-31 Rocket 2.7 04:54:08 10° NNE 04:57:58 85° ESE 05:01:46 10° SSW
Cosmos 44 Rocket 3.1 04:57:39 18° NW 05:01:13 78° SW 05:05:53 10° SSE
Cosmos 1356 3.3 04:58:58 10° NNW 05:02:25 67° W 05:05:50 10° S
ERBS 3.4 05:04:03 29° NW 05:04:35 30° NNW 05:07:38 10° NE
ATLAS 2AS CENTAUR R/B 3.3 05:03:59 22° WSW 05:09:17 52° NW 05:17:03 10° NE
Okean 1-7 Rocket 3.5 05:05:14 10° S 05:09:42 82° W 05:14:14 10° N
Cosmos 1943 Rocket 3.0 05:05:00 10° NNW 05:10:33 51° ENE 05:16:04 10° SE
BREEZE-M DEB (TANK) 4.3 05:05:48 11° SW 05:10:48 32° SSE 05:13:33 10° E
Cosmos 1674 3.4 05:07:43 10° S 05:11:20 55° E 05:15:00 10° NNE
Cosmos 2228 3.1 05:07:31 10° NNW 05:11:38 48° W 05:15:42 10° SSW
CZ-2C R/B 2.5 05:06:52 10° N 05:12:01 64° WNW 05:17:06 10° SSW
COSMO-SKYMED 1 2.8 05:08:15 10° SSE 05:12:34 75° ENE 05:16:56 10° N
Cosmos 1484 Rocket 3.4 05:10:02 10° NNE 05:13:48 58° E 05:17:35 10° S
MSX 4.1 05:08:35 10° N 05:14:02 47° WNW 05:19:29 10° SW
Cosmos 2154 Rocket 4.0 05:13:00 10° SSW 05:19:05 59° WNW 05:25:14 10° N
IDEFIX/ARIANE 42P 3.5 05:14:57 10° N 05:19:21 28° WNW 05:22:08 18° WSW
Cosmos 1726 Rocket 3.8 05:15:16 10° NNW 05:19:22 43° W 05:23:27 10° SSW
COBE Rocket 4.0 05:15:01 10° SSE 05:20:04 85° WSW 05:25:18 10° NNW
Helios 1A Rocket 4.1 05:20:12 10° NNE 05:24:15 47° E 05:28:15 10° S
RESURS DK-1 2.3 05:20:40 10° SW 05:24:45 62° WNW 05:28:53 10° NNE
SL-16 R/B 2.1 05:20:59 10° SSW 05:26:38 77° WNW 05:32:21 10° NNE
Cosmos 1763 Rocket 3.7 05:22:18 10° NNW 05:27:31 74° ENE 05:32:36 10° SSE
Meteor 1-24 Rocket 4.4 05:22:31 10° S 05:28:12 62° E 05:34:06 10° NNE
Meteor 1-16 Rocket 4.4 05:23:51 10° NNW 05:28:52 44° W 05:33:57 10° SSW
USA 267 3.6 05:26:43 10° NE 05:33:00 51° NNW 05:38:38 13° W
Cosmos 2278 Rocket 3.8 05:34:10 14° WSW 05:34:10 14° WSW 05:36:24 10° SW
Cosmos 1626 4.5 05:30:25 10° SSE 05:33:38 28° E 05:36:52 10° NNE
Nadezhda 3 Rocket 4.4 05:28:44 10° NNW 05:34:37 40° W 05:40:26 10° SSW
Cosmos 676 Rocket 4.3 05:30:00 10° SW 05:35:02 45° WNW 05:40:05 10° NNE
Cosmos 1300 4.1 05:31:51 10° N 05:35:30 41° ENE 05:39:07 10° SSE
Cosmos 2297 4.2 05:32:12 10° NW 05:37:31 39° WSW 05:42:47 10° S
Cosmos 1602 Rocket 4.2 05:35:11 10° S 05:39:25 58° E 05:43:41 10° NNE
MOS 1-B 4.3 05:35:41 10° NNE 05:41:32 83° WNW 05:47:21 10° SSW
Okean O Rocket 2.1 05:38:36 10° NNE 05:43:00 66° ESE 05:47:21 10° S
Cosmos 2058 Rocket 3.6 05:39:54 10° NNW 05:43:59 37° W 05:48:03 10° SSW
Iridium 51 4.0 05:41:06 10° N 05:44:52 69° W 05:48:23 10° S
SJ-12 3.9 05:43:10 10° N 05:47:17 80° WNW 05:51:24 10° SSW
Cosmos 2341 Rocket 4.0 05:41:30 10° SSW 05:47:38 60° WNW 05:53:48 10° N
Cosmos 2333 Rocket 3.9 05:45:11 11° WNW 05:48:14 15° NW 05:51:32 10° N
SL-14 R/B 4.1 05:45:44 10° S 05:49:35 54° E 05:53:23 10° NNE
Meteor PRIRODA 4.3 05:49:38 10° N 05:53:04 34° WNW 05:56:28 10° SW
Cosmos 1943 4.4 05:54:13 10° S 05:59:38 48° ESE 06:05:05 10° NE
KORONAS-FOTON 4.0 05:56:14 10° SSW 05:59:51 45° WNW 06:03:31 10° N
Cosmos 192 4.3 05:55:39 10° NNW 06:00:37 76° WSW 06:05:34 10° SSE
SKYMED 2 4.1 05:56:44 10° SSW 06:00:44 36° W 06:04:46 10° NNW
Cosmos 1437 Rocket 3.6 06:00:55 10° SW 06:04:12 27° WNW 06:07:31 10° N
Cosmos 2219 Rocket 4.1 06:02:08 10° NW 06:04:26 12° NNW 06:06:44 10° N
Cosmos 1959 Rocket 4.5 06:01:15 10° SSW 06:07:21 70° W 06:13:33 10° N
SL-8 Rocket 4.1 06:03:35 10° SSW 06:09:39 57° WNW 06:15:43 10° N
ASTEX 1 3.4 06:05:15 10° S 06:10:07 73° W 06:15:03 10° N
Cosmos 1900 4.5 06:05:39 10° NW 06:10:37 81° NE 06:15:30 10° SE
ALOS 2.3 06:06:44 10° N 06:11:23 66° WNW 06:16:00 10° SSW
